Showing default

STRIX-5, 65971

Orbit data source: Space-Track

STRIX-5, 65971 is a payload satellite owned by Synspective (JP) in LEO that was launched on Tue, 14 Oct 2025 UTC via an ELECTRON launch vehicle from the Rocket Lab Launch Complex (RLLC). Payload-class satellites include a variety of spacecraft equipped with specific instruments for various scientific and technological missions. These include communications satellites like Starlink; space stations such as the ISS; scientific satellites like the Hubble; Earth observation satellites from companies like Planet Labs, Umbra, and HawkEye 360; GPS; miniature CubeSats for education and research; and military/defense satellites.

Loading next visibility...
Identifier
65971, 2025-229A
Orbit
LEO
Country
Flag of JPJP / JPN
Related business
Manufacturer
Synspective
Mission
Operational Commercial Radar Imaging
Bus & Motor
STRIX, Unknown motor
Mass
150 kg wet, 150 kg dry
Launch date (UTC)
2025-10-14 (8 months ago)
Launch vehicle
ELECTRON
Launch site
Rocket Lab Launch Complex (RLLC)
Object type
Payload
Rocket body
Debris
Shape & HBR
Box + 2 Pan, 1.0 m
Radar Cross Section
1.052 m², Large (>1 m²)

Expand to show TLE details & history
Last TLE update: 12 hours ago

TLE from 12 hours ago
0 STRIX-5
1 65971U 25229A   26171.35588808  .00003648  00000-0  26670-3 0  9995
2 65971  41.9275 269.8260 0035735  72.6374 287.8355 15.04442768 37451
Epoch: 2026-06-20T08:32Z
TLE epoch observation values (Epoch: 2026-06-20T08:32:28.730Z)
Latitude
-0.00004°
Longitude
-126.86545°
Altitude
545.371 km
Speed
7.595 km/s
True Right ascension
17h 59m 18s
True Declination
0° 00' 00"
Sunlit
Object was in full shadow at epoch
Visualization orbit readout
Latitude
Unknown
Longitude
Unknown
Altitude
Unknown
Speed
Unknown
Apparent Right ascension
Unknown
Apparent Declination
Unknown
Sunlit
N/A
Visualization observer readout
Local Sidereal Time
07:19:28
Azimuth
Unknown
Elevation
Unknown
Doppler factor
Unknown
Orbital elements
Apogee altitude
580.097 km
Perigee altitude
530.543 km
Semi-major axis
6,933.457 km
Eccentricity
0.00357
Inclination
41.9275°
RAAN
269.826°
Arg. of periapsis
72.6374°
True anomaly
287.44516°
Mean anomaly
287.8355°
Eccentric anomaly
287.64038°
Mean motion
3.7594 °/min
Orbital period
95.76 mins
BSTAR
0.0002667
Loading maneuver chart data...
Computing Atmospheric mass density...
Loading historical data...
Loading historical data...
Loading historical data...
Loading historical data...
Loading historical data...
Loading historical data...
Loading historical data...
Other satellites on launch #229 in the year 2025 (2025-10-14 UTC)

Documentation

Showing up to 5 results
|